DW7764 Weather Reports


Display with metric or nautical units.
time (UTC)temp
F
wind
direction
speed
MPH
gust
MPH
rain 1hr
in
rain 24hr
in
rain mn
in
humidity
%
barometer
mb
20260506143025 71 110 1.0 7.0 0.00 0.17 0.01 47 1015.5
20260506141523 71 111 3.0 8.0 0.00 0.17 0.01 48 1015.6
20260506140023 71 166 3.0 10.0 0.00 0.17 0.01 49 1015.8
20260506134539 69 120 4.0 8.0 0.00 0.17 0.01 51 1015.9
20260506133019 69 152 4.0 14.0 0.00 0.17 0.01 51 1016.2
20260506131516 68 198 5.0 11.0 0.00 0.17 0.01 52 1016.3
20260506130018 68 159 4.0 11.0 0.00 0.17 0.01 53 1016.3
20260506124516 69 138 1.0 4.0 0.00 0.17 0.01 55 1016.3
20260506123009 66 158 6.0 12.0 0.00 0.17 0.01 75 1016.4
20260506121509 63 148 4.0 7.0 0.00 0.17 0.01 94 1016.5
20260506120008 62 205 2.0 7.0 0.00 0.17 0.01 95 1016.6
20260506114503 61 23 1.0 5.0 0.00 0.17 0.01 96 1016.7
20260506113100 61 352 1.0 4.0 0.00 0.17 0.01 96 1016.9
20260506111613 61 296 3.0 7.0 0.00 0.17 0.01 94 1017.1
20260506110058 61 229 0.0 4.0 0.00 0.17 0.01 96 1017.2
20260506104603 60 271 1.0 7.0 0.00 0.17 0.01 95 1017.3
20260506103055 59 298 4.0 9.0 0.00 0.17 0.01 95 1017.5
20260506101552 59 207 0.0 6.0 0.00 0.17 0.01 97 1017.5
20260506100051 58 283 2.0 7.0 0.00 0.17 0.01 97 1017.7
20260506094549 58 160 0.0 6.0 0.00 0.17 0.01 98 1017.7
20260506093053 57 274 1.0 8.0 0.00 0.17 0.01 97 1017.8
20260506091548 57 282 2.0 7.0 0.00 0.17 0.01 96 1017.8
20260506090045 58 205 0.0 5.0 0.00 0.17 0.01 99 1017.8
20260506084542 56 298 2.0 9.0 0.00 0.17 0.01 98 1017.6
20260506083051 56 271 1.0 5.0 0.00 0.17 0.01 98 1017.6
20260506081546 55 279 2.0 7.0 0.00 0.17 0.01 99 1017.6
20260506073033 52 280 1.0 4.0 0.00 0.17 0.01 100 1017.4
20260506071532 52 274 0.0 4.0 0.00 0.17 0.01 100 1017.3
20260506061534 48 288 0.0 0.0 0.00 0.17 0.01 100 1017.3
20260506044518 45 288 1.0 2.0 0.00 0.17 0.01 100 1016.6
20260506043015 45 288 1.0 2.0 0.00 0.17 0.01 99 1016.6
20260506041514 45 288 0.0 0.0 0.00 0.17 0.01 99 1016.4
20260506040013 45 288 0.0 0.0 0.00 0.17 0.01 99 1016.4
20260506034511 45 288 0.0 0.0 0.00 0.17 0.01 99 1016.2
20260506033014 45 288 0.0 1.0 0.00 0.17 0.01 100 1016.2
20260506031508 46 288 0.0 2.0 0.00 0.17 0.01 100 1016.2
20260506030005 46 288 0.0 1.0 0.00 0.17 0.01 99 1016.1
20260506024510 47 288 0.0 0.0 0.00 0.17 0.01 99 1016.2
20260506023003 47 288 0.0 0.0 0.01 0.17 0.01 99 1016.2
20260506021506 47 288 0.0 1.0 0.01 0.17 0.01 100 1016.1
20260506020001 47 288 0.0 0.0 0.01 0.17 0.01 99 1016.0
20260506014613 47 288 0.0 0.0 0.01 0.17 0.01 99 1015.8
20260506014503 47 288 0.0 0.0 0.01 0.17 0.01 100 1015.8
20260506013059 47 288 0.0 0.0 0.00 0.17 0.00 100 1015.7
20260506011623 47 288 1.0 4.0 0.00 0.17 0.00 100 1015.8
20260506010057 47 128 0.0 4.0 0.00 0.17 0.00 100 1015.9
20260506004604 47 278 0.0 0.0 0.00 0.17 0.00 100 1016.1
20260506003053 48 280 0.0 0.0 0.00 0.17 0.00 100 1016.2
20260506001551 49 278 0.0 0.0 0.00 0.17 0.00 100 1016.2
20260506000114 49 278 0.0 0.0 0.00 0.17 0.00 100 1016.3
20260505234552 50 280 0.0 0.0 0.00 0.17 0.00 99 1016.3
20260505233046 50 280 0.0 0.0 0.00 0.17 0.00 99 1016.3
20260505231546 50 280 0.0 2.0 0.00 0.17 0.00 99 1016.3
20260505230059 51 278 0.0 0.0 0.00 0.17 0.00 99 1016.0
20260505224542 51 280 0.0 0.0 0.00 0.17 0.00 100 1016.1
20260505223039 52 278 0.0 0.0 0.00 0.17 0.00 100 1016.5
20260505221536 52 278 0.0 0.0 0.00 0.17 0.00 100 1016.5
20260505220034 52 279 0.0 0.0 0.00 0.17 0.00 100 1016.7
20260505214533 52 279 0.0 2.0 0.00 0.17 0.17 100 1016.7
20260505213034 52 279 1.0 4.0 0.00 0.17 0.17 99 1016.7
20260505211536 52 284 0.0 2.0 0.00 0.17 0.17 100 1016.5
20260505210032 52 302 1.0 3.0 0.00 0.17 0.17 99 1016.5
20260505204543 52 316 0.0 1.0 0.00 0.21 0.17 99 1016.2
20260505203034 52 315 0.0 1.0 0.00 0.21 0.17 99 1016.2
20260505201531 52 316 0.0 1.0 0.00 0.21 0.17 100 1016.1
20260505200029 52 314 0.0 0.0 0.00 0.21 0.17 99 1015.8
20260505194534 52 316 0.0 0.0 0.00 0.24 0.17 100 1015.5
20260505193027 52 316 0.0 0.0 0.00 0.24 0.17 99 1015.3
20260505191527 53 315 0.0 3.0 0.00 0.24 0.17 99 1015.2
20260505190033 53 301 0.0 1.0 0.00 0.24 0.17 99 1015.3
20260505184532 53 297 0.0 0.0 0.00 0.24 0.17 99 1015.2
20260505183025 54 297 0.0 2.0 0.01 0.24 0.17 99 1015.3
20260505181525 54 297 0.0 0.0 0.02 0.24 0.17 99 1015.0
20260505180035 54 297 0.0 2.0 0.02 0.24 0.17 99 1015.3
20260505174525 53 301 1.0 5.0 0.02 0.24 0.17 99 1014.9
20260505173026 54 190 1.0 3.0 0.01 0.23 0.16 99 1015.1
20260505171523 53 283 0.0 0.0 0.00 0.22 0.15 99 1015.4
20260505170023 53 281 1.0 4.0 0.14 0.22 0.15 99 1015.7
20260505164521 52 288 1.0 3.0 0.14 0.22 0.15 99 1015.8
20260505163023 52 283 2.0 4.0 0.14 0.22 0.15 98 1015.7
20260505161520 53 337 3.0 12.0 0.14 0.22 0.15 95 1015.5
20260505153017 65 112 3.0 6.0 0.00 0.09 0.01 67 1014.5
20260505151517 65 97 4.0 9.0 0.00 0.09 0.01 65 1014.6